STARLINK-35255, 65602

Orbit data source: Space-Track

STARLINK-35255, 65602 is a payload satellite owned by SpaceX/Seattle (US) in SSO that was launched on Sat, 13 Sep 2025 UTC via an FALCON 9 launch vehicle from the Air Force Eastern Test Range (AFETR). Payload-class satellites include a variety of spacecraft equipped with specific instruments for various scientific and technological missions. These include communications satellites like Starlink; space stations such as the ISS; scientific satellites like the Hubble; Earth observation satellites from companies like Planet Labs, Umbra, and HawkEye 360; GPS; miniature CubeSats for education and research; and military/defense satellites.

Loading next visibility...
Identifier
65602, 2025-207L
Orbit
SSO
Country
Flag of USUS
Related business
Manufacturer
SpaceX/Seattle
Mission
Operational Commercial Communications
Bus & Motor
STARLINK V2MO, Unknown motor
Mass
575 kg wet, ~530 kg dry
Launch date (UTC)
2025-09-13 (9 months ago)
Launch vehicle
FALCON 9
Launch site
Air Force Eastern Test Range (AFETR)
Object type
Payload
Rocket body
Debris
Shape & HBR
Box + 2 Pan, 17.7 m
Radar Cross Section
36.964 m², Large (>1 m²)

Expand to show TLE details & history
Last TLE update: 21 hours ago

TLE from 21 hours ago
0 STARLINK-35255
1 65602U 25207L   26166.26418587  .00001059  00000-0  77374-4 0  9994
2 65602  97.3565 233.9228 0001434 114.5846 245.5531 15.05631697 42943
Epoch: 2026-06-15T06:20Z
TLE epoch observation values (Epoch: 2026-06-15T06:20:25.659Z)
Latitude
-0°
Longitude
-124.73718°
Altitude
553.051 km
Speed
7.585 km/s
True Right ascension
15h 35m 41s
True Declination
0° 00' 00"
Sunlit
Object was in full shadow at epoch
Visualization orbit readout
Latitude
Unknown
Longitude
Unknown
Altitude
Unknown
Speed
Unknown
Apparent Right ascension
Unknown
Apparent Declination
Unknown
Sunlit
N/A
Visualization observer readout
Local Sidereal Time
13:36:55
Azimuth
Unknown
Elevation
Unknown
Doppler factor
Unknown
Orbital elements
Apogee altitude
547.543 km
Perigee altitude
545.557 km
Semi-major axis
6,924.687 km
Eccentricity
0.00014
Inclination
97.3565°
RAAN
233.9228°
Arg. of periapsis
114.5846°
True anomaly
245.53814°
Mean anomaly
245.5531°
Eccentric anomaly
245.54562°
Mean motion
3.76654 °/min
Orbital period
95.58 mins
BSTAR
0.000077374
Loading maneuver chart data...
Computing Atmospheric mass density...
Loading historical data...
Loading historical data...
Loading historical data...
Loading historical data...
Loading historical data...
Loading historical data...
Loading historical data...

Documentation

Showing up to 5 results
|